Simultaneous Nadir Overpasses (SNOs) Predictions

Prediction of SNOs between METOP-C and LANDSAT-8 Satellite Orbit:

Table of predicted SNOs for the next 14.0 days since TLE Epoch: 8/21/2021
Index Date (METOP-C) Time (METOP-C) Lat,Lon (METOP-C) SZA (METOP-C ) Date (LANDSAT-8) Time (LANDSAT-8) Lat,Lon (LANDSAT-8) SZA (LANDSAT-8 ) Distance(km) Time Diff (sec)
1 08/22/2021 16:41:07 -81.17, 150.41 108.27 08/22/2021 16:41:36 -81.18, 150.52 108.24 2.07 29
2 08/22/2021 17:31:46 81.20, -41.28 71.87 08/22/2021 17:31:01 81.20, -41.39 71.84 1.83 45
3 08/25/2021 12:15:26 -81.18,-142.98 107.27 08/25/2021 12:15:51 -81.17,-143.08 107.27 1.74 25
4 08/25/2021 13:06:06 81.20, 24.93 72.82 08/25/2021 13:05:16 81.20, 24.98 72.81 1.11 50
5 08/28/2021 07:49:47 -81.17, -76.75 106.29 08/28/2021 07:50:07 -81.17, -76.71 106.28 0.69 20
6 08/28/2021 08:40:26 81.20, 91.50 73.84 08/28/2021 08:39:32 81.19, 91.32 73.79 3.13 54
7 08/31/2021 03:24:07 -81.18, -10.16 105.25 08/31/2021 03:24:22 -81.19, -10.02 105.22 2.60 15
8 08/31/2021 04:14:46 81.20, 158.06 74.88 08/31/2021 04:13:47 81.21, 158.00 74.85 1.13 59
9 09/02/2021 22:58:26 -81.18, 56.42 104.18 09/02/2021 22:58:37 -81.18, 56.28 104.20 2.60 11



Historial Predications of SNOs between METOP-C and LANDSAT-8
